Weather in Nachiki

Russia / Kamchatka Krai     53°07′20″N   157°44′50″E
temp.,
°C
wind,
m/s
gust,
m/s
humid.,
%
clouds,
%
prec.,
mm/h
press.,
hPa
HPBL,
m
28 february, sun
sun2800:00−13ene3395100 0.5 100831
03:00−14nne3389100 0.1 100722
06:00−16nnw3383100 0.2 100521
09:00−17nnw2388100 0.0 100520
12:00−13nw338598 0.0 1003148
15:00−11wnw3383100 0.0 1001318
18:00−11wsw339499 0.1 99978
21:00−14wsw339798 0.1 99930
1 march, mon
mon100:00−15wsw449798 0.3 99777
03:00−14w51696100 0.3 996471
06:00−14w71798100 0.5 996484
09:00−13w101796100 0.3 996573
12:00−10w131592100 0.8 9971170
15:00−10w14179198 0.6 9981335
18:00−11w13169398 1.1 999992
21:00−11w14189299 0.9 1002808
2 march, tue
tue200:00−13w10199489 0.9 1004475
03:00−12w11179392 0.6 1007747
06:00−12w9169795 1.2 1009588
09:00−15wsw459697 0.1 101485
12:00−11w13179297 0.5 10171507
15:00−11w131591100 0.7 10211434
18:00−13w91292100 1.1 1024787
21:00−16wsw3397100 0.2 102726
3 march, wed
wed300:00−18s1198100 0.3 102820
03:00−15e2289100 0.0 102561
06:00−15e5596100 1.3 1020245
09:00−14e6794100 3.2 1014419
12:00−11e6794100 5.2 1005448
15:00−9e6694100 3.3 996324
18:00−9e5695100 9.2 987252
21:00−7e5596100 6.3 978136
4 march, thu
thu400:00−10wsw202593100 9.7 983978
03:00−13w222694100 2.3 9921222
06:00−15w192494100 3.8 9971431
09:00−16w182495100 1.1 10031756
12:00−15w192593100 2.4 10081844
15:00−13wsw172392100 1.6 10101889
18:00−10sw132392100 3.4 10101967
21:00−9sw152592100 2.2 10081593